Flag for U.S.A. Weather past 2 weeks in Overland Park, Kansas, U.S.A.

Now
67 °F

Clear.


Feels Like: 67 °F
Forecast: 63 / 78 °F
Wind: 6 mph from Southeast

Location: Johnson County Executive Airport

Current Time: May 28, 2015 at 1:24:34 AM

Latest Report: May 28, 2015 at 12:53 AM


Visibility: 10 mi

Pressure: 30.07 "Hg

Humidity: 68%

Dew point: 56 °F

Location of Overland ParkLocation

Historic Weather in Overland Park — Graph

°F

Overland Park temperature yesterday

Maximum temperature yesterday: 80 °F (at 2:53 PM)
Minimum temperature yesterday: 61 °F (at 4:53 AM)
Average temperature yesterday: 71 °F

Past Weeks' High & Low Weather Summary

 TemperatureHumidityPressure
High81 °F (May 16, 4:53 PM)100% (May 14, 6:53 AM)30.31 "Hg (May 14, 6:53 AM)
Low46 °F (May 19, 5:53 AM)40% (May 21, 6:53 PM)29.68 "Hg (May 17, 2:53 AM)
Average63 °F78%30.02 "Hg
* Reported May 12 11:53 PM — May 27 11:53 PM, Overland Park, Weather by CustomWeather, © 2015

Note: Actual official high and low records may vary slightly from our data, if they occured in-between our weather recording intervals... More about our weather records

Advertising

Overland Park weather history for previous 24 hours

 ConditionsComfort  
Time TempWeatherWind HumidityBarometerVisibility
11:53 PM
Wed, May 27
68 °FClear.7 mph65%30.05 "Hg10 mi
10:53 PM69 °FClear.5 mph63%30.07 "Hg10 mi
9:53 PM70 °FClear.3 mph61%30.05 "Hg4 mi
8:53 PM72 °FSunny.6 mph53%30.03 "Hg10 mi
7:53 PM75 °FSunny.5 mph47%30.03 "Hg10 mi
6:53 PM78 °FSunny.6 mph45%30.03 "Hg10 mi
5:53 PM79 °FSunny.3 mph41%30.04 "Hg10 mi
4:53 PM79 °FSunny.No wind42%30.05 "Hg10 mi
3:53 PM79 °FSunny.6 mph42%30.06 "Hg10 mi
2:53 PM80 °FSunny.5 mph44%30.06 "Hg10 mi
1:53 PM78 °FSunny.5 mph40%30.07 "Hg10 mi
12:53 PM77 °FSunny.3 mph47%30.08 "Hg10 mi
11:53 AM77 °FSunny.6 mph45%30.07 "Hg10 mi
10:53 AM76 °FSunny.6 mph47%30.06 "Hg10 mi
9:53 AM73 °FSunny.3 mph59%30.06 "Hg10 mi
8:53 AM71 °FSunny.6 mph57%30.05 "Hg10 mi
7:53 AM66 °FSunny.No wind75%30.03 "Hg10 mi
6:53 AM62 °FClear.3 mph83%30.03 "Hg10 mi
5:53 AM61 °FClear.3 mph87%30.00 "Hg10 mi
4:53 AM61 °FPassing clouds.3 mph90%29.99 "Hg10 mi
3:53 AM62 °FClear.3 mph90%29.97 "Hg10 mi
2:53 AM62 °FClear.3 mph93%29.95 "Hg10 mi
1:53 AM63 °FPassing clouds.3 mph93%29.93 "Hg10 mi
Weather by CustomWeather, © 2015

See weather overviewHow to use our weather pages